Flag for Canada Weather past 2 weeks in Hopedale, Newfoundland and Labrador, Canada

Now
52 °F

Cool.


Feels Like: 47 °F
Forecast: 49 / 59 °F
Wind: 14 mph from Northwest

Location: Hopedale

Current Time: Jul 24, 2014 at 6:15:39 AM

Latest Report: Jul 24, 2014 at 5:00 AM


Visibility: N/A

Pressure: 29.37 "Hg

Humidity: 94%

Dew point: 50 °F

Location of HopedaleLocation

Historic Weather in Hopedale — Graph

°F

Hopedale temperature yesterday

Maximum temperature yesterday: 62 °F (at 11:00 AM)
Minimum temperature yesterday: 52 °F (at 11:00 PM)
Average temperature yesterday: 58 °F

Past Weeks' High & Low Weather Summary

 TemperatureHumidityPressure
High79 °F (Jul 20, 5:00 PM)100% (Jul 13, 12:00 AM)30.06 "Hg (Jul 13, 12:00 AM)
Low40 °F (Jul 16, 5:00 AM)42% (Jul 11, 2:00 PM)29.23 "Hg (Jul 24, 1:00 AM)
Average51 °F83%29.82 "Hg
* Reported Jul 9 5:00 AM — Jul 24 5:00 AM, Hopedale, Weather by CustomWeather, © 2014

Note: Actual official high and low records may vary slightly from our data, if they occured in-between our weather recording intervals... More about our weather records

Advertising

Hopedale weather history for previous 24 hours

 ConditionsComfort  
Time TempWeatherWind HumidityBarometerVisibility
5:00 AM
Jul 24
52 °FCool.14 mph94%29.37 "HgN/A
4:00 AM49 °FCool.26 mph99%29.34 "HgN/A
2:00 AM49 °FCool.23 mph96%29.27 "HgN/A
1:00 AM51 °FCool.17 mph97%29.23 "HgN/A
12:00 AM52 °FCool.7 mph96%29.24 "HgN/A
11:00 PM
Jul 23
52 °FCool.3 mph96%29.24 "HgN/A
10:00 PM53 °FCool.25 mph96%29.24 "HgN/A
9:00 PM53 °FCool.26 mph96%29.26 "HgN/A
8:00 PM53 °FCool.22 mph97%29.30 "HgN/A
7:00 PM54 °FCool.23 mph99%29.34 "HgN/A
6:00 PM54 °FCool.13 mph97%29.38 "HgN/A
5:00 PM56 °FCool.14 mph95%29.36 "HgN/A
4:00 PM58 °FCool.13 mph92%29.37 "HgN/A
3:00 PM59 °FCool.15 mph91%29.39 "HgN/A
2:00 PM62 °FCool.1 mph89%29.45 "HgN/A
1:00 PM60 °FCool.2 mph87%29.47 "HgN/A
12:00 PM62 °FCool.8 mph83%29.49 "HgN/A
11:00 AM62 °FCool.5 mph81%29.50 "HgN/A
10:00 AM62 °FCool.6 mph72%29.50 "HgN/A
9:00 AM56 °FCool.8 mph85%29.50 "HgN/A
8:00 AM58 °FCool.7 mph86%29.50 "HgN/A
7:00 AM57 °FCool.7 mph84%29.52 "HgN/A
6:00 AM59 °FCool.8 mph82%29.51 "HgN/A
Weather by CustomWeather, © 2014

See weather overviewHow to use our weather pages